[[{"header":{"parameterUnit":"m.s-1","parameterCategory":1,"la1":30.2991,"la2":30.254,"lo1":-89.0895,"lo2":-89.0444,"dy":0.0017,"dx":0.0017,"nx":28,"ny":28,"refTime":"2024-03-26T09:00:00:Z","depth":0,"parameterNumber":2,"parameterNumberName":"U-component_of_WINDS"},"data":[0,0,0,0,0,0,0,0,0,0,0,0,0,0,0,0,0,0,0,0,0,0,0,0,0,0,0,0,0,0,0,0,0,0,0,0,0,0,0,0,0,0,0,0,0,0,0,0,0,0,0,0,0,0,0,0,0,0,1.0654,1.0654,0,1.0594,1.0593,1.0592,1.0541,1.054,1.054,1.0539,1.0476,1.0475,1.0474,0,0,0,0,0,0,0,0,0,0,0,0,0,1.0726,1.0725,1.0654,1.0654,1.0653,1.0594,1.0593,1.0592,1.0541,1.054,1.0539,1.0539,1.0476,1.0475,1.0474,0,0,0,0,0,0,0,0,0,0,0,0,0,1.0683,1.0725,1.0654,1.062,1.0616,1.0594,1.0593,1.0592,1.0541,1.054,1.0539,1.0538,1.0477,1.0475,1.0473,1.048,0,0,1.0468,1.0467,0,0,0,0,0,0,0,0,1.0685,1.068,1.0626,1.0622,1.0618,1.0574,1.0595,1.0554,1.0541,1.057,1.0539,1.0538,1.0509,1.0505,1.0495,1.0477,1.0474,1.0468,1.0467,1.0466,1.0466,0,0,0,0,0,0,0,1.0689,1.0683,1.063,1.0625,1.0621,1.0608,1.0601,1.0587,1.0545,1.0567,1.0563,1.0557,1.0507,1.0497,1.0493,1.0473,1.0468,1.0467,1.0465,1.0465,1.0458,1.0458,0,0,0,0,0,0,1.0697,1.0686,1.0632,1.0628,1.0651,1.0607,1.0599,1.0589,1.0545,1.0537,1.0557,1.0555,1.05,1.0495,1.0491,1.0495,1.0466,1.0465,1.0464,1.0457,1.0458,1.0459,0,0,0,0,0,0,1.0699,1.0693,1.0635,1.0656,1.0648,1.0607,1.0596,1.0588,1.0578,1.0538,1.053,1.0555,1.0499,1.0493,1.0483,1.0493,1.0464,1.0462,1.0456,1.0457,1.0458,1.0505,0,0,0,0,0,0,1.0701,1.0694,1.0695,1.0656,1.0647,1.0628,1.0596,1.0588,1.0575,1.0571,1.0533,1.0526,1.0498,1.0486,1.0481,1.049,1.0461,1.0455,1.0456,1.0458,1.0502,1.0507,1.0512,0,0,0,0,0,1.0704,1.0711,1.0696,1.069,1.0648,1.0629,1.0623,1.0591,1.0576,1.0578,1.0552,1.0527,1.0493,1.0485,1.048,1.0488,1.0454,1.0456,1.0458,1.05,1.0506,1.0512,0,0,0,0,0,0,1.0751,1.0705,1.0688,1.0682,1.066,1.062,1.0621,1.0599,1.058,1.0576,1.0537,1.0529,1.0523,1.0504,1.0497,1.0492,1.047,1.0471,1.0504,1.051,1.0515,1.0519,1.0459,0,0,0,0,0,1.0761,1.0749,1.0709,1.0708,1.0698,1.0662,1.0652,1.0629,1.0604,1.0594,1.0568,1.0544,1.0528,1.0518,1.0501,1.05,1.0491,1.0502,1.0507,1.0512,1.0513,1.0511,1.0516,1.0465,1.0465,1.0465,0,0,1.0781,1.0754,1.0749,1.0717,1.0697,1.0686,1.0654,1.0643,1.0634,1.0592,1.0581,1.0561,1.0532,1.0527,1.0523,1.0511,1.0525,1.0514,1.0518,1.0516,1.0514,1.0518,1.0523,1.0466,1.0466,1.0466,0,0,1.0812,1.0791,1.0788,1.0769,1.0739,1.0715,1.0714,1.0678,1.0663,1.0651,1.062,1.0609,1.0582,1.0563,1.055,1.0575,1.0552,1.0571,1.0596,1.0595,1.0599,1.0603,1.0612,1.0615,1.0572,1.0572,1.0572,0,1.0841,1.0822,1.0789,1.078,1.0767,1.073,1.0727,1.071,1.0676,1.0668,1.0655,1.0621,1.0599,1.0589,1.0595,1.0586,1.0584,1.0574,1.0601,1.0604,1.0607,1.0615,1.0619,1.0575,1.0575,1.0574,1.0574,0,1.0859,1.0847,1.0848,1.0817,1.0804,1.0798,1.0764,1.0755,1.0735,1.0712,1.0701,1.0674,1.0651,1.0647,1.0626,1.0634,1.0627,1.0609,1.0586,1.0615,1.0622,1.0625,1.0578,1.0577,1.0577,1.0576,0,0,1.0916,1.0868,1.0869,1.0855,1.082,1.081,1.0803,1.0781,1.0774,1.0752,1.0745,1.0724,1.0707,1.0692,1.0669,1.0668,1.069,1.0649,1.0648,1.0658,1.0698,1.0712,1.0716,1.0675,1.0676,1.0676,1.07,0,1.0941,1.0926,1.0897,1.0891,1.0879,1.0845,1.0839,1.0817,1.0796,1.0783,1.076,1.0746,1.0724,1.0715,1.0713,1.0688,1.0698,1.0686,1.0668,1.0668,1.0676,1.0719,1.0734,1.0757,1.0702,1.0703,1.0703,0,1.0968,1.0949,1.0942,1.0909,1.0903,1.0898,1.0876,1.0864,1.0839,1.0824,1.0808,1.0783,1.0774,1.0754,1.0741,1.0734,1.0725,1.0712,1.0712,1.0709,1.0687,1.0717,1.0764,1.0768,1.0707,1.0707,1.0707,0,1.101,1.0983,1.0976,1.0964,1.0926,1.0923,1.0907,1.0881,1.087,1.0851,1.0843,1.0823,1.0812,1.0797,1.0768,1.0756,1.0758,1.0736,1.0745,1.0746,1.0746,1.0747,1.0793,1.0742,1.0742,1.0742,1.0742,0,1.104,1.1038,1.0994,1.099,1.0986,1.0952,1.0949,1.093,1.0907,1.0899,1.0868,1.086,1.0822,1.081,1.0787,1.078,1.0775,1.0763,1.0757,1.0765,1.0767,1.0758,1.0756,1.0743,1.0743,1.0742,1.0742,0,1.1086,1.1057,1.1047,1.1012,1.1003,1.1001,1.0971,1.0965,1.0944,1.0933,1.0928,1.0894,1.0878,1.0848,1.0824,1.0808,1.0806,1.0796,1.0815,1.0811,1.0822,1.0822,1.0864,1.0868,1.0816,1.0816,1.0817,0,1.1107,1.1104,1.1069,1.1061,1.1046,1.1034,1.1023,1.099,1.098,1.0952,1.095,1.0932,1.0916,1.0893,1.0866,1.0847,1.0836,1.0852,1.0833,1.0842,1.0836,1.0836,1.0836,1.0856,1.0857,1.0857,1.0858,0,1.1147,1.1134,1.1119,1.1099,1.1087,1.107,1.1051,1.1047,1.101,1.1,1.0984,1.0972,1.0948,1.0931,1.0909,1.0892,1.0869,1.0865,1.0866,1.0874,1.0885,1.0879,1.0826,1.0863,1.0863,1.0862,1.0862,1.0862,1.1181,1.1177,1.1152,1.1137,1.112,1.1103,1.1097,1.1074,1.106,1.1038,1.102,1.1006,1.0982,1.095,1.0935,1.0924,1.0912,1.0914,1.0915,1.0915,1.0919,1.0888,1.0919,1.0919,1.0919,1.0919,1.0919,0,1.1219,1.1202,1.1188,1.1164,1.1152,1.1132,1.1111,1.1102,1.109,1.107,1.1055,1.1037,1.1021,1.0993,1.0975,1.0971,1.096,1.0967,1.0966,1.0963,1.093,1.0931,1.0976,1.0976,1.0976,1.0976,1.0976,1.0976,1.1238,1.123,1.1214,1.1198,1.118,1.1166,1.1156,1.1141,1.1124,1.1106,1.1092,1.1075,1.1051,1.1031,1.1015,1.1007,1.1002,1.1012,1.1001,1.0971,1.0965,1.096,1.0961,1.1011,1.1011,1.1035,1.1035,1.1035]},{"header":{"parameterUnit":"m.s-1","parameterCategory":1,"la1":30.2991,"la2":30.254,"lo1":-89.0895,"lo2":-89.0444,"dy":0.0017,"dx":0.0017,"nx":28,"ny":28,"refTime":"2024-03-26T09:00:00:Z","depth":0,"parameterNumber":3,"parameterNumberName":"V-component_of_WINDS"},"data":[0,0,0,0,0,0,0,0,0,0,0,0,0,0,0,0,0,0,0,0,0,0,0,0,0,0,0,0,0,0,0,0,0,0,0,0,0,0,0,0,0,0,0,0,0,0,0,0,0,0,0,0,0,0,0,0,0,0,-5.2453,-5.2455,0,-5.2644,-5.2646,-5.2648,-5.2621,-5.2618,-5.2615,-5.2612,-5.2807,-5.2815,-5.2823,0,0,0,0,0,0,0,0,0,0,0,0,0,-5.2066,-5.2073,-5.2453,-5.2455,-5.2458,-5.2643,-5.2646,-5.2649,-5.2622,-5.2618,-5.2614,-5.261,-5.2804,-5.2814,-5.2824,0,0,0,0,0,0,0,0,0,0,0,0,0,-5.2243,-5.2076,-5.2452,-5.2467,-5.247,-5.2643,-5.2646,-5.2649,-5.2622,-5.2618,-5.2613,-5.2608,-5.2801,-5.2813,-5.2825,-5.2997,0,0,-5.2863,-5.2868,0,0,0,0,0,0,0,0,-5.2233,-5.2257,-5.2462,-5.2466,-5.247,-5.2604,-5.2581,-5.2766,-5.2624,-5.2564,-5.2612,-5.2606,-5.2743,-5.276,-5.2806,-5.3006,-5.3014,-5.2864,-5.2871,-5.2877,-5.288,0,0,0,0,0,0,0,-5.2221,-5.2249,-5.2528,-5.2465,-5.247,-5.2464,-5.2483,-5.2616,-5.2678,-5.2569,-5.2568,-5.2591,-5.2744,-5.2795,-5.2811,-5.3017,-5.2863,-5.2874,-5.2882,-5.2887,-5.3368,-5.3373,0,0,0,0,0,0,-5.2205,-5.2239,-5.2522,-5.2534,-5.2337,-5.2474,-5.2497,-5.2566,-5.2677,-5.2689,-5.2595,-5.2589,-5.2776,-5.2796,-5.2817,-5.3027,-5.2876,-5.2888,-5.2895,-5.3363,-5.3369,-5.3375,0,0,0,0,0,0,-5.2197,-5.223,-5.2515,-5.2386,-5.2422,-5.2486,-5.2564,-5.2572,-5.2622,-5.2696,-5.2707,-5.2634,-5.2773,-5.28,-5.2953,-5.3033,-5.2893,-5.2905,-5.3356,-5.3365,-5.3372,-5.3446,0,0,0,0,0,0,-5.2186,-5.2228,-5.2293,-5.2388,-5.2429,-5.2647,-5.2569,-5.2579,-5.2643,-5.2637,-5.2736,-5.2748,-5.2771,-5.2934,-5.2965,-5.3047,-5.2914,-5.3349,-5.336,-5.337,-5.3436,-5.3455,-5.3471,0,0,0,0,0,-5.2172,-5.2306,-5.2297,-5.2331,-5.2512,-5.2651,-5.2675,-5.2699,-5.265,-5.2716,-5.2764,-5.2745,-5.3019,-5.295,-5.2984,-5.3072,-5.3344,-5.3357,-5.3369,-5.3428,-5.3452,-5.3471,0,0,0,0,0,0,-5.2219,-5.2319,-5.2309,-5.2478,-5.2556,-5.2646,-5.2731,-5.2722,-5.2816,-5.2807,-5.2833,-5.2856,-5.301,-5.3056,-5.2978,-5.3244,-5.3175,-5.3195,-5.3209,-5.3231,-5.3248,-5.3235,-5.2924,0,0,0,0,0,-5.2249,-5.2353,-5.2435,-5.2576,-5.2615,-5.2667,-5.2728,-5.274,-5.2822,-5.2855,-5.2914,-5.2995,-5.3099,-5.3168,-5.3268,-5.3442,-5.3464,-5.3519,-5.3537,-5.3551,-5.3568,-5.3665,-5.3691,-5.3415,-5.3415,-5.3415,0,0,-5.2312,-5.2379,-5.2443,-5.2587,-5.2649,-5.2757,-5.2695,-5.2811,-5.2892,-5.2873,-5.3021,-5.3067,-5.3159,-5.3324,-5.3399,-5.3366,-5.3649,-5.3567,-5.3577,-5.3587,-5.368,-5.3706,-5.3729,-5.3424,-5.3422,-5.3421,0,0,-5.2482,-5.2543,-5.2668,-5.2731,-5.2826,-5.286,-5.289,-5.2982,-5.3012,-5.316,-5.3149,-5.3245,-5.3424,-5.349,-5.3548,-5.3744,-5.373,-5.3776,-5.3868,-5.3962,-5.3984,-5.4003,-5.4075,-5.41,-5.3792,-5.3792,-5.3792,0,-5.2548,-5.271,-5.2733,-5.2852,-5.2915,-5.2903,-5.303,-5.3091,-5.3214,-5.3259,-5.322,-5.3446,-5.3506,-5.3687,-5.3735,-5.3781,-5.3817,-5.3765,-5.3979,-5.3999,-5.4017,-5.4085,-5.4112,-5.3797,-5.3797,-5.3796,-5.3796,0,-5.2788,-5.29,-5.299,-5.3109,-5.3183,-5.3305,-5.3347,-5.3419,-5.3425,-5.3462,-5.3614,-5.3687,-5.3802,-5.3846,-5.3852,-5.4028,-5.4005,-5.3973,-5.3904,-5.4048,-5.4113,-5.4139,-5.3804,-5.3803,-5.3801,-5.38,0,0,-5.2993,-5.3124,-5.3156,-5.3211,-5.3315,-5.3403,-5.3525,-5.3638,-5.37,-5.3785,-5.3889,-5.4041,-5.4012,-5.4077,-5.409,-5.4173,-5.4326,-5.4131,-5.4133,-5.4166,-5.4525,-5.455,-5.458,-5.4317,-5.4322,-5.4326,-5.4518,0,-5.3174,-5.339,-5.3414,-5.3607,-5.3712,-5.3702,-5.3808,-5.3884,-5.3923,-5.4018,-5.406,-5.4168,-5.4121,-5.416,-5.4241,-5.429,-5.4398,-5.4276,-5.4414,-5.4419,-5.4393,-5.4613,-5.464,-5.4818,-5.4543,-5.4548,-5.4551,0,-5.3414,-5.3507,-5.371,-5.3801,-5.3846,-5.3941,-5.4047,-5.4138,-5.4224,-5.4246,-5.4319,-5.4322,-5.4449,-5.4375,-5.455,-5.4466,-5.4524,-5.4556,-5.4564,-5.4578,-5.4494,-5.4635,-5.4875,-5.4902,-5.4591,-5.4587,-5.4584,0,-5.3545,-5.3721,-5.3865,-5.3912,-5.4021,-5.4089,-5.4137,-5.4219,-5.4285,-5.4378,-5.4422,-5.4528,-5.4586,-5.4668,-5.47,-5.4643,-5.4874,-5.4802,-5.4897,-5.4896,-5.4947,-5.4944,-5.5201,-5.4982,-5.4982,-5.4981,-5.4981,0,-5.3746,-5.3871,-5.3926,-5.4015,-5.4155,-5.4182,-5.432,-5.4365,-5.4438,-5.4536,-5.4534,-5.4626,-5.4662,-5.476,-5.4786,-5.4928,-5.4954,-5.4976,-5.4981,-5.4977,-5.4974,-5.5016,-5.5005,-5.4988,-5.4987,-5.4985,-5.4984,0,-5.3916,-5.3958,-5.4115,-5.4206,-5.4231,-5.4331,-5.4409,-5.4495,-5.4532,-5.4657,-5.4687,-5.4746,-5.4862,-5.4902,-5.5041,-5.5059,-5.5224,-5.5219,-5.5196,-5.5197,-5.529,-5.5281,-5.5584,-5.5625,-5.5378,-5.5381,-5.5383,0,-5.4042,-5.4138,-5.4239,-5.4305,-5.4356,-5.4462,-5.453,-5.456,-5.4631,-5.4737,-5.4811,-5.4926,-5.5019,-5.5205,-5.526,-5.5367,-5.5365,-5.5464,-5.5381,-5.5374,-5.5368,-5.5363,-5.5373,-5.5479,-5.5482,-5.5484,-5.5486,0,-5.4261,-5.4277,-5.4375,-5.4482,-5.4563,-5.4649,-5.4731,-5.4785,-5.4827,-5.4908,-5.5026,-5.5099,-5.5242,-5.5357,-5.5466,-5.5517,-5.5509,-5.5511,-5.5539,-5.5536,-5.5519,-5.5531,-5.5239,-5.5504,-5.5502,-5.5501,-5.55,-5.5499,-5.4414,-5.4499,-5.4584,-5.4694,-5.4759,-5.4837,-5.4923,-5.4971,-5.507,-5.519,-5.5201,-5.5329,-5.5414,-5.5561,-5.5616,-5.5717,-5.5689,-5.5729,-5.574,-5.575,-5.5757,-5.5502,-5.5737,-5.5736,-5.5736,-5.5735,-5.5735,0,-5.4634,-5.4688,-5.4789,-5.4905,-5.4992,-5.4977,-5.5067,-5.5141,-5.5254,-5.5333,-5.5426,-5.5562,-5.5673,-5.5738,-5.5849,-5.5918,-5.5917,-5.5946,-5.5942,-5.5954,-5.5775,-5.574,-5.5945,-5.5945,-5.5945,-5.5944,-5.5944,-5.5944,-5.4759,-5.4903,-5.4929,-5.5106,-5.5159,-5.5285,-5.5338,-5.541,-5.5474,-5.5626,-5.5719,-5.576,-5.5834,-5.5951,-5.6052,-5.6068,-5.611,-5.6142,-5.6156,-5.5988,-5.5966,-5.5946,-5.5913,-5.6151,-5.6151,-5.6326,-5.6328,-5.6329]}]]